{"data":{"norad_id":53685,"intl_designator":"2022-105AP","name":"STARLINK-4626","alt_names":[],"object_type":"PAYLOAD","status":"ACTIVE","operator":null,"country":"US","launch_date":"2022-08-31","launch_site_code":"AFWTR","launch_vehicle":null,"mission":null,"orbit_class":"UNKNOWN","rcs_meters":null,"size_class":null,"mass_kg":null,"dimensions":null,"purposes":["comms"],"wikipedia_slug":null,"has_3d_model":false,"image_url":null,"decayed_at":null,"tle_current":{"epoch":"2026-05-25T05:16:32.505888Z","epoch_age_seconds":49376,"freshness":"FRESH","line1":"1 53685U 22105AP  26145.21982067  .00000384  00000+0  30695-4 0  9991","line2":"2 53685  97.4520  25.1067 0002714  73.8222 286.3304 15.05639153204746","mean_motion":15.05639153,"eccentricity":0.0002714,"inclination_deg":97.452,"raan_deg":25.1067,"arg_perigee_deg":73.8222,"mean_anomaly_deg":286.3304,"bstar":3.0695e-5,"rev_number":20474,"period_min":95.640445928281,"perigee_km":547.66425359687,"apogee_km":551.42459907508,"semimajor_km":6927.681426336,"source":"CELESTRAK","updated_at":"2026-05-25T13:38:17.528904Z"}}}